TimeEDT,TemperatureF,Dew PointF,Humidity,Sea Level PressureIn,VisibilityMPH,Wind Direction,Wind SpeedMPH,Gust SpeedMPH,PrecipitationIn,Events,Conditions,WindDirDegrees,DateUTC
12:08 AM,68.0,64.4,88,30.11,10.0,NW,8.1,-,N/A,,Mostly Cloudy,320,2013-08-23 04:08:00
12:19 AM,68.0,66.2,94,30.11,10.0,NNW,6.9,-,N/A,,Overcast,330,2013-08-23 04:19:00
12:54 AM,66.0,64.0,93,30.11,9.0,North,3.5,-,N/A,,Mostly Cloudy,350,2013-08-23 04:54:00
1:54 AM,66.9,64.9,93,30.12,4.0,North,4.6,-,N/A,,Overcast,360,2013-08-23 05:54:00
2:04 AM,66.2,66.2,100,30.12,2.0,North,4.6,-,N/A,,Overcast,10,2013-08-23 06:04:00
2:16 AM,66.2,66.2,100,30.12,4.0,North,4.6,-,N/A,,Overcast,10,2013-08-23 06:16:00
2:51 AM,66.2,64.4,94,30.12,5.0,North,4.6,-,N/A,,Mostly Cloudy,10,2013-08-23 06:51:00
2:54 AM,66.9,64.9,93,30.11,5.0,North,4.6,-,N/A,,Mostly Cloudy,360,2013-08-23 06:54:00
3:04 AM,66.2,64.4,94,30.12,4.0,NNE,4.6,-,N/A,,Partly Cloudy,20,2013-08-23 07:04:00
3:16 AM,66.2,64.4,94,30.11,5.0,NNE,4.6,-,N/A,,Scattered Clouds,30,2013-08-23 07:16:00
3:25 AM,66.2,64.4,94,30.11,6.0,NNE,9.2,-,N/A,,Mostly Cloudy,30,2013-08-23 07:25:00
3:54 AM,66.9,64.9,93,30.09,4.0,NNE,8.1,-,N/A,,Overcast,20,2013-08-23 07:54:00
4:54 AM,66.9,64.0,90,30.10,6.0,NE,5.8,-,N/A,,Mostly Cloudy,40,2013-08-23 08:54:00
5:06 AM,66.2,62.6,88,30.11,7.0,NNE,4.6,-,N/A,,Scattered Clouds,30,2013-08-23 09:06:00
5:54 AM,63.0,61.0,93,30.10,5.0,North,4.6,-,N/A,,Clear,360,2013-08-23 09:54:00
6:27 AM,62.6,60.8,94,30.12,2.5,North,4.6,-,N/A,,Partly Cloudy,10,2013-08-23 10:27:00
6:29 AM,62.6,60.8,94,30.12,1.0,North,4.6,-,N/A,,Mist,10,2013-08-23 10:29:00
6:31 AM,62.6,60.8,94,30.12,2.0,North,4.6,-,N/A,,Scattered Clouds,10,2013-08-23 10:31:00
6:54 AM,62.1,61.0,96,30.12,1.0,North,5.8,-,N/A,,Mist,10,2013-08-23 10:54:00
7:21 AM,64.4,62.6,94,30.14,2.0,NE,3.5,-,N/A,,Partly Cloudy,40,2013-08-23 11:21:00
7:28 AM,64.4,62.6,94,30.14,3.0,NNE,5.8,-,N/A,,Partly Cloudy,30,2013-08-23 11:28:00
7:54 AM,64.9,62.1,90,30.14,4.0,NNE,5.8,-,N/A,,Clear,30,2013-08-23 11:54:00
8:54 AM,68.0,60.1,76,30.15,10.0,ENE,6.9,-,N/A,,Clear,70,2013-08-23 12:54:00
9:54 AM,71.1,57.0,61,30.16,10.0,East,4.6,-,N/A,,Clear,80,2013-08-23 13:54:00
10:54 AM,73.9,57.0,55,30.17,10.0,NE,6.9,-,N/A,,Clear,50,2013-08-23 14:54:00
11:54 AM,75.9,57.0,52,30.17,10.0,Variable,4.6,-,N/A,,Clear,0,2013-08-23 15:54:00
12:54 PM,79.0,55.0,44,30.17,10.0,NNE,10.4,16.1,N/A,,Clear,30,2013-08-23 16:54:00
1:54 PM,80.1,53.1,39,30.16,10.0,ENE,8.1,-,N/A,,Clear,60,2013-08-23 17:54:00
2:54 PM,81.0,51.1,35,30.15,10.0,NNE,4.6,-,N/A,,Clear,30,2013-08-23 18:54:00
3:54 PM,81.0,50.0,34,30.14,10.0,Calm,Calm,-,N/A,,Clear,0,2013-08-23 19:54:00
4:54 PM,81.0,51.1,35,30.13,10.0,NNE,6.9,-,N/A,,Clear,20,2013-08-23 20:54:00
5:54 PM,81.0,51.1,35,30.13,10.0,NNE,9.2,-,N/A,,Clear,30,2013-08-23 21:54:00
6:54 PM,79.0,50.0,36,30.13,10.0,NNE,9.2,-,N/A,,Clear,30,2013-08-23 22:54:00
7:54 PM,75.9,52.0,43,30.14,10.0,NE,4.6,-,N/A,,Clear,50,2013-08-23 23:54:00
8:54 PM,72.0,53.1,51,30.15,10.0,NNE,3.5,-,N/A,,Clear,30,2013-08-24 00:54:00
9:54 PM,66.0,55.9,70,30.18,10.0,NNE,4.6,-,N/A,,Clear,30,2013-08-24 01:54:00
10:54 PM,63.0,55.0,75,30.19,10.0,NE,5.8,-,N/A,,Clear,40,2013-08-24 02:54:00
11:54 PM,63.0,55.0,75,30.19,10.0,Calm,Calm,-,N/A,,Clear,0,2013-08-24 03:54:00